Weather History for Cross City, FL

Change the Weather History Date:

Saturday, November 10, 2012

  Actual Average Record
Temperature  
Mean Temperature 55 °F 64 °F  
Max Temperature 76 °F 77 °F 84 °F (1998)
Min Temperature 34 °F 50 °F 34 °F (2012)
Degree Days  
Heating Degree Days 10 3  
Month to date heating degree days 57 30  
Since 1 July heating degree days 95 62  
Cooling Degree Days 0 2  
Month to date cooling degree days 11 27  
Year to date cooling degree days 2791 2570  
Growing Degree Days 4 (Base 50)    
Moisture  
Dew Point 41 °F    
Average Humidity 68    
Maximum Humidity 96    
Minimum Humidity 29    
Precipitation  
Precipitation 0.00 in 0.08 in 0.04 in (2005)
Month to date precipitation 0.07 0.72  
Year to date precipitation 57.22 43.95  
Sea Level Pressure  
Sea Level Pressure 30.30 in    
Wind  
Wind Speed 1 mph (ENE)    
Max Wind Speed 8 mph    
Max Gust Speed 24 mph    
T = Trace of Precipitation, MM = Missing Value Source: NWS Daily Summary

Daily Weather History Graph

Daily Weather History Graph

Search for Another Location

Airport:

Trip Planner

Search our weather history database for the weather conditions in past years. The results will help you decide how hot, cold, wet, or windy it might be!

Date:

Astronomy

Nov. 10, 2012 Rise Set
Actual Time 6:53 AM EST 5:39 PM EST
Civil Twilight 6:28 AM EST 6:04 PM EST
Nautical Twilight 5:59 AM EST 6:32 PM EST
Astronomical Twilight 5:31 AM EST 7:01 PM EST
Moon 3:11 AM EST (11/10) 3:13 PM EST (11/10)
Length of Visible Light 11h 36m
Length of Day
10h 46m
Waning Crescent, 14% of the Moon is Illuminated
Nov 10
Waning Crescent
Nov 13
New
Nov 20
First Quarter
Nov 28
Full
Dec 6
Last Quarter

Hourly Weather History & Observations

Time (EST) Temp. Windchill Dew Point Humidity Pressure Visibility Wind Dir Wind Speed Gust Speed Precip Events Conditions
12:53 AM 39.0 °F - 37.0 °F 93% 30.27 in - Calm Calm - N/A   Unknown
1:53 AM 37.9 °F - 36.0 °F 93% 30.27 in - Calm Calm - N/A   Unknown
2:53 AM 37.0 °F - 35.1 °F 93% 30.27 in - Calm Calm - N/A   Unknown
3:53 AM 36.0 °F - 34.0 °F 93% 30.27 in - Calm Calm - N/A   Unknown
4:53 AM 35.1 °F - 32.0 °F 89% 30.27 in - Calm Calm - N/A   Unknown
5:53 AM 34.0 °F - 32.0 °F 92% 30.29 in - Calm Calm - N/A   Unknown
6:53 AM 34.0 °F - 30.9 °F 89% 30.31 in - Calm Calm - N/A   Unknown
7:53 AM 42.1 °F 40.2 °F 37.9 °F 85% 30.33 in - NE 3.5 mph - N/A   Unknown
8:53 AM 54.0 °F - 46.0 °F 75% 30.35 in - Calm Calm - N/A   Unknown
9:53 AM 64.9 °F - 45.0 °F 48% 30.35 in - ENE 3.5 mph - N/A   Unknown
10:53 AM 69.1 °F - 41.0 °F 36% 30.35 in - Variable 3.5 mph - N/A   Unknown
11:53 AM 72.0 °F - 37.9 °F 29% 30.32 in - Variable 4.6 mph - N/A   Unknown
12:53 PM 73.9 °F - 39.9 °F 29% 30.29 in - Variable 4.6 mph - N/A   Unknown
1:53 PM 75.0 °F - 41.0 °F 29% 30.27 in - ENE 5.8 mph - N/A   Unknown
2:53 PM 75.9 °F - 41.0 °F 29% 30.27 in - Calm Calm - N/A   Unknown
3:53 PM 75.0 °F - 42.1 °F 31% 30.27 in - Calm Calm - N/A   Unknown
4:53 PM 73.0 °F - 44.1 °F 35% 30.26 in - Calm Calm - N/A   Unknown
5:53 PM 61.0 °F - 50.0 °F 67% 30.27 in - Calm Calm - N/A   Unknown
6:53 PM 55.9 °F - 48.0 °F 75% 30.29 in - Calm Calm - N/A   Unknown
7:53 PM 54.0 °F - 48.0 °F 80% 30.31 in - Calm Calm - N/A   Unknown
8:53 PM 51.1 °F - 45.0 °F 80% 30.31 in - Calm Calm - N/A   Unknown
9:53 PM 48.9 °F - 46.0 °F 90% 30.32 in - Calm Calm - N/A   Unknown
10:53 PM 48.0 °F - 44.1 °F 86% 30.31 in - Calm Calm - N/A   Unknown
11:53 PM 48.0 °F - 44.1 °F 86% 30.31 in - Calm Calm - N/A   Unknown